Voltar ao catálogo

COSMOS 2251 DEB

AtivoLEO
NORAD 35667·DEBRIS·🇷🇺 Russia

Lançado Jun 16, 1993 de Plesetsk Cosmodrome

Loading…

Próximas Passagens (próximas 24 horas)

TLE

ObsoletoSource: Space-Track

Época: Sep 1, 2026, 13:58 UTC

1 35667U 93036APJ 26244.58243237  .00002248  00000-0  45165-3 0  9990
2 35667  74.0572 358.1298 0020099 347.8741  12.1939 14.62126263746425

Acompanhe COSMOS 2251 DEB em tempo real com AllMySat

Download on the App Store